Regional Weather Roundup
Issued by NWS

Home | Current Version | Previous Version | Graphics & Text | Print | Product List | Glossary Off
Versions: 1 2 3 4 5 6 7 8 9 10 11 12 13 14 15 16 17 18 19 20 21 22 23 24 25 26 27 28 29 30 31 32 33 34 35 36 37 38 39 40 41 42 43 44 45 46 47 48 49 50

000
ASUS43 KMKX 211821
RWRWI

WISCONSIN REGIONAL WEATHER ROUNDUP
NATIONAL WEATHER SERVICE MILWAUKEE/SULLIVAN WI
1200 PM CST TUE FEB 21 2017

NOTE: "FAIR" INDICATES FEW OR NO CLOUDS BELOW 12,000 FEET WITH NO
SIGNIFICANT WEATHER AND/OR OBSTRUCTIONS TO VISIBILITY.

WIZ001-002-006>008-014>016-023>028-211900-
NORTHWEST WISCONSIN

CITY           SKY/WX    TMP DP  RH WIND       PRES   REMARKS
SUPERIOR ARPT  SUNNY     46  38  72 S5        29.81F
6HR MIN TEMP:  35; 6HR MAX TEMP:  46;

ASHLAND        SUNNY     49  38  65 SW12      29.82F
6HR MIN TEMP:  35; 6HR MAX TEMP:  49;

HAYWARD        SUNNY     44  36  73 SW8       29.85F
6HR MIN TEMP:  35; 6HR MAX TEMP:  44;

SIREN          SUNNY     46  37  72 SE3       29.84F
6HR MIN TEMP:  35; 6HR MAX TEMP:  46;

CUMBERLAND     PTSUNNY   39  37  93 SE5       29.85F
RICE LAKE      MOSUNNY   42  38  88 SE7       29.88F
CHETEK         MOSUNNY   42  37  82 SE6       29.89F
6HR MIN TEMP:  34; 6HR MAX TEMP:  42;

LADYSMITH      PTSUNNY   40  37  89 S6        29.90F
6HR MIN TEMP:  36; 6HR MAX TEMP:  40;

EAU CLAIRE     SUNNY     46  37  71 S6        29.89F
6HR MIN TEMP:  36; 6HR MAX TEMP:  46;

MENOMONIE      MOSUNNY   45  40  84 E6        29.88F
6HR MIN TEMP:  36; 6HR MAX TEMP:  42;

NEW RICHMOND   SUNNY     49  41  74 S9G16     29.84F
6HR MIN TEMP:  34; 6HR MAX TEMP:  46;

OSCEOLA        NOT AVBL
$$

WIZ003>005-009-010-017-018-211900-
NORTH CENTRAL WISCONSIN

CITY           SKY/WX    TMP DP  RH WIND       PRES   REMARKS
MANITOWISH WTR SUNNY     46  35  66 SW14      29.84F
6HR MIN TEMP:  34; 6HR MAX TEMP:  46;

ARBOR VITAE    SUNNY     49  36  59 W9        29.85F
6HR MIN TEMP:  37; 6HR MAX TEMP:  49;

WOODRUFF       SUNNY     49  36  59 W9        29.85F
6HR MIN TEMP:  37; 6HR MAX TEMP:  49;

RHINELANDER    SUNNY     50  35  56 W12       29.86S
6HR MIN TEMP:  38; 6HR MAX TEMP:  50;

EAGLE RIVER    SUNNY     46  34  61 SW9       29.84F
6HR MIN TEMP:  36; 6HR MAX TEMP:  47;

LAND O LAKES   SUNNY     51  32  48 W9        29.84F
6HR MIN TEMP:  37; 6HR MAX TEMP:  50;

PHILLIPS       SUNNY     45  37  72 SW6       29.86F
6HR MIN TEMP:  34; 6HR MAX TEMP:  43;

TOMAHAWK       SUNNY     48  34  58 W5        29.88F
6HR MIN TEMP:  36; 6HR MAX TEMP:  48;

MEDFORD        MOSUNNY   39  36  89 SW5       29.89F
6HR MIN TEMP:  34; 6HR MAX TEMP:  39;

MERRILL        NOT AVBL
$$

WIZ029-030-035-036-043>047-211900-
CENTRAL WISCONSIN

CITY           SKY/WX    TMP DP  RH WIND       PRES   REMARKS
WAUSAU         SUNNY     46  38  73 SW5       29.89S
6HR MIN TEMP:  37; 6HR MAX TEMP:  46;

MOSINEE        SUNNY     45  41  87 S7        29.92S
MARSHFIELD     SUNNY     47  41  80 SW6       29.90S
6HR MIN TEMP:  38; 6HR MAX TEMP:  47;

STEVENS POINT  SUNNY     47  37  66 SW5       29.92S
6HR MIN TEMP:  38; 6HR MAX TEMP:  47;

WAUPACA        SUNNY     57  40  52 SW5       29.91F
6HR MIN TEMP:  44; 6HR MAX TEMP:  55;

WAUTOMA        SUNNY     55  40  56 SW5       29.92S
6HR MIN TEMP:  43; 6HR MAX TEMP:  55;

WISC RAPIDS    SUNNY     52  40  63 VRB5      29.92F
6HR MIN TEMP:  41; 6HR MAX TEMP:  52;

CAMP DOUGLAS   SUNNY     54  43  66 VRB6      29.92F
$$

WIZ011>013-019>022-031-037>040-048>050-211900-
NORTHEAST WISCONSIN

CITY           SKY/WX    TMP DP  RH WIND       PRES   REMARKS
ANTIGO         SUNNY     46  38  73 W8        29.89S
6HR MIN TEMP:  37; 6HR MAX TEMP:  46;

SHAWANO        SUNNY     54  40  59 W8        29.90F
6HR MIN TEMP:  45; 6HR MAX TEMP:  53;

OCONTO         SUNNY     55  39  54 W10       29.87S
6HR MIN TEMP:  44; 6HR MAX TEMP:  54;

STURGEON BAY   SUNNY     53  40  61 SW9       29.88S
6HR MIN TEMP:  46; 6HR MAX TEMP:  53;

GREEN BAY      SUNNY     54  45  71 SW6       29.90S
6HR MIN TEMP:  45; 6HR MAX TEMP:  54;

MANITOWOC      SUNNY     54  42  64 W10       29.90F
6HR MIN TEMP:  47; 6HR MAX TEMP:  54;

APPLETON       SUNNY     52  39  62 W7        29.90R
CLINTONVILLE   SUNNY     54  37  54 W3        29.90S
OSHKOSH        SUNNY     53  43  68 SW6       29.92S
6HR MIN TEMP:  45; 6HR MAX TEMP:  53;

$$

WIZ032>034-041-042-053>061-211900-
SOUTHWEST WISCONSIN

CITY           SKY/WX    TMP DP  RH WIND       PRES   REMARKS
LA CROSSE      SUNNY     52  40  63 SE6       29.93F
6HR MIN TEMP:  37; 6HR MAX TEMP:  52;

SPARTA         SUNNY     54  41  61 W6        29.92F
6HR MIN TEMP:  40; 6HR MAX TEMP:  51;

VIROQUA        SUNNY     53  42  64 SW6       29.93S
6HR MIN TEMP:  35; 6HR MAX TEMP:  52;

BOSCOBEL       SUNNY     54  41  61 S5        29.95F
6HR MIN TEMP:  33; 6HR MAX TEMP:  54;

PRAIRIE DU CHI SUNNY     53  42  66 CALM      29.93F
6HR MIN TEMP:  32; 6HR MAX TEMP:  52;

PLATTEVILLE    SUNNY     56  42  61 CALM      29.95S
6HR MIN TEMP:  37; 6HR MAX TEMP:  56;

$$

WIZ056-057-062-063-064-067-068-211900-
SOUTH CENTRAL WISCONSIN

CITY           SKY/WX    TMP DP  RH WIND       PRES   REMARKS
REEDSBURG      SUNNY     54  44  69 CALM      29.92F
6HR MIN TEMP:  41; 6HR MAX TEMP:  53;

BARABOO/DELLS  SUNNY     54  41  61 W3        29.93S
6HR MIN TEMP:  40; 6HR MAX TEMP:  54;

LONE ROCK      SUNNY     53  42  66 VRB3      29.94F
6HR MIN TEMP:  39; 6HR MAX TEMP:  53;

MINERAL POINT  SUNNY     55  43  62 CALM      29.94S
MADISON        MOSUNNY   51  42  71 CALM      29.93F
6HR MIN TEMP:  42; 6HR MAX TEMP:  51;

MIDDLETON        N/A     56  43  61 CALM      29.93F
6HR MIN TEMP:  44; 6HR MAX TEMP:  56;

WATERTOWN      SUNNY     53  46  77 W3        29.93S
6HR MIN TEMP:  45; 6HR MAX TEMP:  53;

MONROE         SUNNY     55  43  62 CALM      29.93F
JANESVILLE     MOSUNNY   57  46  67 CALM      29.94S
$$

WIZ051-052-058>065-066-070>072-211900-
SOUTHEAST WISCONSIN

CITY           SKY/WX    TMP DP  RH WIND       PRES   REMARKS
MILWAUKEE      MOSUNNY   59  45  59 SW6       29.93S
6HR MIN TEMP:  53; 6HR MAX TEMP:  59;

WAUKESHA       MOSUNNY   55  45  67 W10       29.94S
MILWAUKEE/TIMM SUNNY     57  41  54 SW8       29.93F
RACINE         PTSUNNY   58  45  62 W6        29.94F
6HR MIN TEMP:  54; 6HR MAX TEMP:  59;

KENOSHA        MOSUNNY   59  48  67 SW5       29.93S
6HR MIN TEMP:  53; 6HR MAX TEMP:  59;

FOND DU LAC    SUNNY     53  43  68 VRB7      29.92S
6HR MIN TEMP:  45; 6HR MAX TEMP:  53;

SHEBOYGAN      SUNNY     56  42  59 W9        29.90F
6HR MIN TEMP:  47; 6HR MAX TEMP:  56;

WEST BEND      SUNNY     54  43  66 W7        29.91F
JUNEAU         SUNNY     49  43  78 SW3       29.93F
6HR MIN TEMP:  44; 6HR MAX TEMP:  49;

$$

LSZ147-162-211900-
LAKE SUPERIOR

STATION/POSITION TIME  TEMP    WIND        PRES    WAVE
                       AIR SEA DIR/SP/G            HT/PER
                 (UTC) (F)     (DEG/KT/KT) (MB)    (FT/S)
DEVILS ISLAND    1800   35     240/ 11/ 15 1010.1F
PORT WING        1730   37     290/ 10/ 11 1010.2F
SAXON HARBOR     1730   51     210/  9/ 14 1009.8F
$$

LMZ867-665-643>646-211900-
LAKE MICHIGAN

STATION/POSITION TIME  TEMP    WIND        PRES    WAVE
                       AIR SEA DIR/SP/G            HT/PER
                 (UTC) (F)     (DEG/KT/KT) (MB)    (FT/S)
CHAMBERS ISLAND  1740   49     180/  7/ 10 1010.8S
NORTHPORT PIER   1740   54     260/  3/ 12 1010.8S
SISTER BAY       1705   56     280/  4/  5   N/A
KEWAUNEE LAKESHO 1754   53     260/  9/ 12 1011.2F
SHEBOYGAN LAKESH 1800   54     260/  6/  8 1012.3F
PORT WASHINGTON  1730   58     170/  3/  7 1013.5F
MILWAUKEE LAKESH 1750



USA.gov is the U.S. government's official web portal to all federal, state and local government web resources and services.